Weather History for Ramona, CA

Change the Weather History Date:

Tuesday, April 30, 2013

  Actual Average Record
Temperature  
Mean Temperature 63 °F 59 °F  
Max Temperature 73 °F 73 °F 93 °F (1996)
Min Temperature 53 °F 45 °F 36 °F (2009)
Degree Days  
Heating Degree Days 2 7  
Month to date heating degree days 211 277  
Since 1 July heating degree days 2275 2392  
Cooling Degree Days 0 0  
Month to date cooling degree days 1 4  
Year to date cooling degree days 1 5  
Growing Degree Days 12 (Base 50)    
Moisture  
Dew Point 51 °F    
Average Humidity 70    
Maximum Humidity 93    
Minimum Humidity 47    
Precipitation  
Precipitation 0.00 in 0.03 in 0.14 in (1999)
Month to date precipitation 0.06 1.40  
Year to date precipitation 4.03 10.91  
Since 1 July precipitation 7.67 15.62  
Snow  
Snow 0.00 in - - ()
Month to date snowfall 0.0  
Year to date snowfall 0.0  
Since 1 July snowfall 0.0  
Snow Depth 0.00 in    
Sea Level Pressure  
Sea Level Pressure 29.83 in    
Wind  
Wind Speed 5 mph (WSW)    
Max Wind Speed 14 mph    
Max Gust Speed 25 mph    
Visibility 8 miles    
Events      
T = Trace of Precipitation, MM = Missing Value Source: NWS Daily Summary

Daily Weather History Graph

Daily Weather History Graph

Search for Another Location

Airport:

Trip Planner

Search our weather history database for the weather conditions in past years. The results will help you decide how hot, cold, wet, or windy it might be!

Date:

Astronomy

Apr. 30, 2013 Rise Set
Actual Time 6:00 AM PDT 7:29 PM PDT
Civil Twilight 5:34 AM PDT 7:55 PM PDT
Nautical Twilight 5:03 AM PDT 8:27 PM PDT
Astronomical Twilight 4:30 AM PDT 9:00 PM PDT
Moon No Moon Rise 10:37 AM PDT (4/30)
Length of Visible Light 14h 21m
Length of Day
13h 28m
Waning Gibbous, 69% of the Moon is Illuminated
Apr 30
Waning Gibbous
May 2
Last Quarter
May 9
New
May 17
First Quarter
May 24
Full

Hourly Weather History & Observations

Time (PDT) Temp. Dew Point Humidity Pressure Visibility Wind Dir Wind Speed Gust Speed Precip Events Conditions
12:53 AM 54.0 °F 51.1 °F 90% 29.83 in 5.0 mi SE 4.6 mph - N/A   Overcast
1:53 AM 54.0 °F 51.1 °F 90% 29.81 in 6.0 mi Calm Calm - N/A   Overcast
2:53 AM 53.1 °F 51.1 °F 93% 29.81 in 5.0 mi Calm Calm - N/A   Overcast
3:53 AM 53.1 °F 51.1 °F 93% 29.81 in 5.0 mi Calm Calm - N/A   Overcast
4:53 AM 53.1 °F 50.0 °F 89% 29.81 in 5.0 mi SSE 3.5 mph - N/A   Overcast
5:53 AM 53.1 °F 50.0 °F 89% 29.81 in 6.0 mi South 3.5 mph - N/A   Overcast
6:53 AM 54.0 °F 48.9 °F 83% 29.83 in 6.0 mi NE 3.5 mph - N/A   Haze
7:53 AM 54.0 °F 48.9 °F 83% 29.83 in 7.0 mi Calm Calm - N/A   Overcast
8:53 AM 57.0 °F 48.9 °F 74% 29.84 in 8.0 mi Calm Calm - N/A   Scattered Clouds
9:53 AM 63.0 °F 48.9 °F 60% 29.84 in 10.0 mi Calm Calm - N/A   Partly Cloudy
10:53 AM 64.9 °F 50.0 °F 58% 29.84 in 9.0 mi Variable 4.6 mph - N/A   Clear
11:53 AM 70.0 °F 50.0 °F 49% 29.83 in 10.0 mi West 5.8 mph - N/A   Clear
12:53 PM 71.1 °F 50.0 °F 47% 29.83 in 10.0 mi WNW 10.4 mph - N/A   Clear
1:53 PM 71.1 °F 50.0 °F 47% 29.83 in 10.0 mi WNW 11.5 mph - N/A   Clear
2:53 PM 72.0 °F 51.1 °F 48% 29.82 in 10.0 mi West 10.4 mph - N/A   Clear
3:53 PM 70.0 °F 52.0 °F 53% 29.81 in 10.0 mi West 12.7 mph - N/A   Clear
4:53 PM 69.1 °F 52.0 °F 54% 29.81 in 10.0 mi WSW 5.8 mph - N/A   Clear
5:53 PM 66.9 °F 52.0 °F 59% 29.81 in 10.0 mi SW 8.1 mph - N/A   Clear
6:53 PM 60.1 °F 52.0 °F 75% 29.84 in 10.0 mi West 11.5 mph - N/A   Mostly Cloudy
7:53 PM 57.9 °F 52.0 °F 81% 29.85 in 10.0 mi WNW 8.1 mph - N/A   Overcast
8:31 PM 57.2 °F 51.8 °F 82% 29.88 in 10.0 mi West 4.6 mph - N/A   Overcast
8:53 PM 57.0 °F 52.0 °F 83% 29.87 in 10.0 mi West 5.8 mph - N/A   Overcast
9:53 PM 57.0 °F 52.0 °F 83% 29.87 in 10.0 mi WSW 3.5 mph - N/A   Overcast
10:53 PM 55.9 °F 52.0 °F 87% 29.87 in 9.0 mi South 5.8 mph - N/A   Overcast
11:53 PM 55.9 °F 52.0 °F 87% 29.88 in 9.0 mi South 4.6 mph - N/A   Overcast